Greenville, ME

6:29 AM EST on December 16, 2019 (GMT -0500)
Greenville

Weather History for KGNR - August, 2019

Change the Weather History Date:

Sunday, August 25, 2019

  Actual Average (WUND) Record (WUND)
Temperature  
Mean Temperature 60 °F -  
Max Temperature 71 °F - - (-1)
Min Temperature 50 °F - - (-1)
Degree Days  
Heating Degree Days 5    
Growing Degree Days 10 (Base 50)    
Moisture  
Dew Point 46 °F    
Average Humidity 64    
Maximum Humidity 89    
Minimum Humidity 38    
Precipitation  
Precipitation 0.00 in - - ()
Sea Level Pressure  
Sea Level Pressure 30.37 in    
Wind  
Wind Speed 1 mph ()    
Max Wind Speed 8 mph    
Max Gust Speed -    
Averages and records for this station are not official NWS values.
T = Trace of Precipitation, MM = Missing Value Source: Averaged Metar Reports

Daily Weather History Graph

Daily Weather History Graph

Search for Another Location

Airport or City:

Astronomy

Aug. 25, 2019 Rise Set
Actual Time 5:50 AM EDT 7:29 PM EDT
Civil Twilight 5:19 AM EDT 8:00 PM EDT
Nautical Twilight 4:41 AM EDT 8:38 PM EDT
Astronomical Twilight 4:00 AM EDT 9:18 PM EDT
Moon 12:14 AM EDT (8/25) 3:56 PM EDT (8/25)
Length of Visible Light 14h 40m
Length of Day
13h 38m
Waning Crescent, 29% of the Moon is Illuminated
Aug 25
Waning Crescent
Aug 30
New
Sep 5
First Quarter
Sep 14
Full
Sep 21
Last Quarter

Hourly Weather History & Observations

Time (EDT) Temp. Dew Point Humidity Pressure Visibility Wind Dir Wind Speed Gust Speed Precip Events Conditions
12:56 AM 53.1 °F 48.0 °F 83% 30.36 in - Calm Calm - N/A   Unknown
1:56 AM 53.1 °F 46.0 °F 77% 30.36 in - Calm Calm - N/A   Unknown
2:56 AM 52.0 °F 46.9 °F 83% 30.36 in - Calm Calm - N/A   Unknown
3:56 AM 53.1 °F 48.0 °F 83% 30.37 in - Calm Calm - N/A   Unknown
4:56 AM 51.1 °F 48.0 °F 89% 30.38 in - Calm Calm - N/A   Unknown
5:56 AM 50.0 °F 46.9 °F 89% 30.39 in - SE 3.5 mph - N/A   Unknown
6:56 AM 53.1 °F 50.0 °F 89% 30.40 in - Calm Calm - N/A   Unknown
7:56 AM 57.0 °F 50.0 °F 77% 30.41 in - Calm Calm - N/A   Unknown
8:56 AM 60.1 °F 50.0 °F 69% 30.43 in - East 3.5 mph - N/A   Unknown
9:56 AM 64.0 °F 48.0 °F 56% 30.42 in - Calm Calm - N/A   Unknown
10:56 AM 66.0 °F 43.0 °F 43% 30.42 in - Variable 3.5 mph - N/A   Unknown
11:56 AM 66.0 °F 42.1 °F 42% 30.41 in - East 4.6 mph - N/A   Unknown
12:56 PM 69.1 °F 43.0 °F 39% 30.39 in - ESE 8.1 mph - N/A   Unknown
1:56 PM 69.1 °F 42.1 °F 38% 30.37 in - Calm Calm - N/A   Unknown
2:56 PM 70.0 °F 45.0 °F 41% 30.35 in - Variable 3.5 mph - N/A   Unknown
3:56 PM 70.0 °F 45.0 °F 41% 30.34 in - SSE 4.6 mph - N/A   Unknown
4:56 PM 70.0 °F 46.0 °F 42% 30.33 in - SE 5.8 mph - N/A   Unknown
5:56 PM 68.0 °F 46.0 °F 45% 30.34 in - SSE 3.5 mph - N/A   Unknown
6:56 PM 64.0 °F 46.9 °F 54% 30.33 in - Calm Calm - N/A   Unknown
7:56 PM 61.0 °F 46.9 °F 60% 30.34 in - Calm Calm - N/A   Unknown
8:56 PM 57.0 °F 46.9 °F 69% 30.35 in - Calm Calm - N/A   Unknown
9:56 PM 55.9 °F 46.9 °F 72% 30.34 in - Calm Calm - N/A   Unknown
10:56 PM 55.9 °F 46.9 °F 72% 30.34 in - Calm Calm - N/A   Unknown
11:56 PM 55.0 °F 46.9 °F 74% 30.33 in - NNE 3.5 mph - N/A   Unknown